Location: Unspecified
(0.0000°N, 0.0000°E)
Time: 23:36:52
(UTC+00:00)

S-56A Canister/Altair - Pass Details

Date: 04 October 2020
Orbit: 633 x 2499 km, 38.9° (Epoch: 28 October)

Event Time Altitude Azimuth Distance (km) Brightness Sun altitude
Rises 09:41:52 0° 235° (SW) 4,279 11.1 58.0°
Reaches altitude 10° 09:44:23 10° 237° (WSW) 3,522 10.8 58.6°
Maximum altitude 09:53:45 71° 320° (NW) 1,964 10.4 61.0°
Drops below altitude 10° 10:07:28 10° 42° (NE) 4,965 12.0 64.3°
Sets 10:11:43 0° 44° (NE) 6,093 12.3 65.4°
